Station ANMN6 - Field Station, Hudson River Reserve, NY Image indicating link to RSS feed of recent meteorological observations for station ANMN6


Conditions at ANMN6 as of
(12:30 am EDT)
0430 GMT on 06/24/2024:
     

Click on the graph icon in the table below to see a time series plot of the last five days of that observation.

5-day plot - Wind Speed Wind Speed (WSPD): 0.0 kts
5-day plot - Atmospheric Pressure Atmospheric Pressure (PRES):29.50 in
5-day plot - Air Temperature Air Temperature (ATMP): 79.0 °F
5-day plot - Dew Point Dew Point (DEWP): 70.5 °F
5-day plot - Heat Index Heat Index (HEAT): 81.9 °F
5-day plot -  Wind Speed, Wind Gust and Atmospheric Pressure Combined plot of Wind Speed, Gust, and Air Pressure
Previous observations
TIME
(EDT)
5-day plot - Wind Direction
WDIR
 
5-day plot - Wind Speed
WSPD
kts
5-day plot - Wind Gust
GST
kts
5-day plot - Wave Height
WVHT
ft
5-day plot - Dominant Wave Period
DPD
sec
5-day plot - Average Wave Period
APD
sec
5-day plot - Mean Wave Direction
MWD
 
5-day plot - Atmospheric Pressure
PRES
in
5-day plot - Pressure Tendency
PTDY
in
5-day plot - Air Temperature
ATMP
°F
5-day plot - Water Temperature
WTMP
°F
5-day plot - Dew Point
DEWP
°F
5-day plot - Salinity
SAL
psu
5-day plot - Visibility
VIS
nmi
5-day plot - Tide (above MLLW)
TIDE
ft
2024-06-24 12:15 am- 0.0-----29.50- 78.8- 70.9---
2024-06-24 12:00 am S 1.0-----29.50+0.00 79.0- 70.5---
2024-06-23 11:45 pmSSW 1.0-----29.50- 78.6- 70.7---
2024-06-23 11:30 pm S 1.0-----29.50- 78.3- 70.7---
2024-06-23 11:15 pm- 0.0-----29.50- 77.5- 71.1---
2024-06-23 11:00 pm- 0.0-----29.50+0.00 76.8- 71.4---
2024-06-23 10:45 pm- 0.0-----29.50- 77.4- 71.6---
2024-06-23 10:30 pm- 0.0-----29.50- 78.4- 71.6---
2024-06-23 10:15 pm SE 1.0-----29.50- 79.2- 71.1---
2024-06-23 10:00 pm S 1.9-----29.50+0.00 78.8- 71.2---
2024-06-23 09:45 pm- 0.0-----29.50- 78.6- 71.4---
2024-06-23 09:30 pm SW 1.0-----29.50- 78.8- 71.6---
2024-06-23 09:15 pm E 1.0-----29.50- 79.0- 71.8---
2024-06-23 09:00 pm- 0.0-----29.50+0.00 79.7- 71.2---
2024-06-23 08:45 pmWSW 1.0-----29.50- 79.9- 71.1---
2024-06-23 08:30 pm- 0.0-----29.50- 80.4- 71.6---
2024-06-23 08:15 pm N 1.0-----29.50- 81.3- 71.2---
2024-06-23 08:00 pm W 1.0-----29.50-0.03 81.5- 71.1---
2024-06-23 07:45 pm S 1.0-----29.50- 82.0- 70.7---
2024-06-23 07:30 pm W 1.0-----29.50- 82.6- 70.0---
2024-06-23 07:15 pmWSW 1.9-----29.50- 83.8- 69.3---
2024-06-23 07:00 pm W 1.9-----29.50-0.03 84.9- 70.3---
2024-06-23 06:45 pm W 1.9-----29.50- 83.5- 71.6---
2024-06-23 06:30 pm- 0.0-----29.50- 81.9- 73.4---
2024-06-23 06:15 pm- 0.0-----29.50- 81.5- 73.0---
2024-06-23 06:00 pm- 0.0-----29.50-0.06 81.0- 72.9---
2024-06-23 05:45 pm- 0.0-----29.50- 81.0- 72.5---
2024-06-23 05:30 pm- 0.0-----29.50- 80.8- 71.6---
2024-06-23 05:15 pm- 0.0-----29.50- 80.4- 70.3---
2024-06-23 05:00 pmESE 1.0-----29.53-0.06 81.0- 69.3---
2024-06-23 04:45 pmSSE 1.9-----29.53- 83.3- 70.2---
2024-06-23 04:30 pm SW 1.9-----29.53- 87.1- 73.8---
2024-06-23 04:15 pm SW 1.0-----29.53- 87.3- 73.6---
2024-06-23 04:00 pm- 0.0-----29.53-0.09 87.8- 73.6---
2024-06-23 03:45 pmSSW 1.9-----29.53- 88.2- 73.9---
2024-06-23 03:30 pmSSW 1.9-----29.56- 87.6- 74.3---
2024-06-23 03:15 pmWSW 1.0-----29.56- 87.8- 74.5---
2024-06-23 03:00 pmWSW 1.9-----29.56-0.09 88.2- 74.8---
2024-06-23 02:45 pm S 1.9-----29.56- 87.6- 74.7---
2024-06-23 02:30 pm S 1.0-----29.56- 87.4- 75.0---
2024-06-23 02:15 pm S 1.0-----29.56- 89.1- 76.1---
2024-06-23 02:00 pmSSW 1.9-----29.59-0.09 88.9- 75.9---
2024-06-23 01:45 pm SW 1.0-----29.59- 86.7- 76.5---
2024-06-23 01:30 pm- 0.0-----29.59- 84.6- 75.2---
2024-06-23 01:15 pm SW 1.0-----29.62- 84.0- 74.7---
2024-06-23 01:00 pmSSW 1.0-----29.62-0.09 83.7- 74.3---
2024-06-23 12:45 pm S 1.0-----29.62- 83.8- 74.5---
2024-06-23 12:30 pmSSW 1.0-----29.65- 84.2- 74.8---
2024-06-23 12:15 pmWSW 1.0-----29.65- 83.5- 75.0---
2024-06-23 12:00 pm SW 1.0-----29.65-0.09 81.7- 74.3---
2024-06-23 11:45 amWNW 1.0-----29.68- 81.0- 73.6---
2024-06-23 11:30 am SW 1.0-----29.68- 80.2- 72.9---
2024-06-23 11:15 amWSW 1.0-----29.68- 80.6- 73.2---
2024-06-23 11:00 amWSW 1.9-----29.68-0.09 80.2- 72.9---
2024-06-23 10:45 amSSW 1.0-----29.68- 79.0- 72.5---
2024-06-23 10:30 amSSE 1.0-----29.71- 78.3- 72.5---
2024-06-23 10:15 am S 1.0-----29.71- 77.5- 72.5---
2024-06-23 10:00 amSSW 1.0-----29.71-0.06 76.1- 71.8---
2024-06-23 09:45 am- 0.0-----29.71- 75.6- 71.6---
2024-06-23 09:30 amSSW 1.0-----29.74- 75.0- 71.2---
2024-06-23 09:15 am- 0.0-----29.74- 74.8- 71.8---
2024-06-23 09:00 am- 0.0-----29.74-0.06 74.1- 71.4---
2024-06-23 08:45 am- 0.0-----29.77- 73.4- 71.1---
2024-06-23 08:30 am- 0.0-----29.77- 72.9- 70.5---
2024-06-23 08:15 am- 0.0-----29.77- 72.5- 70.3---
2024-06-23 08:00 am- 0.0-----29.77-0.03 72.3- 70.2---
2024-06-23 07:45 am- 0.0-----29.77- 72.3- 70.2---
2024-06-23 07:30 am- 0.0-----29.77- 72.0- 69.8---
2024-06-23 07:15 am- 0.0-----29.77- 71.6- 69.4---
2024-06-23 07:00 am- 0.0-----29.77-0.06 71.2- 69.4---
2024-06-23 06:45 am- 0.0-----29.77- 71.2- 69.4---
2024-06-23 06:30 am- 0.0-----29.80- 71.1- 69.3---
2024-06-23 06:15 am- 0.0-----29.80- 71.1- 69.3---
2024-06-23 06:00 am- 0.0-----29.80-0.06 71.1- 69.6---
2024-06-23 05:45 am- 0.0-----29.80- 70.7- 69.3---
2024-06-23 05:30 am- 0.0-----29.80- 70.5- 69.4---
2024-06-23 05:15 am- 0.0-----29.80- 70.3- 69.3---
2024-06-23 05:00 am- 0.0-----29.80-0.06 70.3- 69.3---
2024-06-23 04:45 am- 0.0-----29.80- 70.2- 69.1---
2024-06-23 04:30 am- 0.0-----29.80- 70.2- 69.1---
2024-06-23 04:15 am- 0.0-----29.83- 70.0- 68.9---
2024-06-23 04:00 am- 0.0-----29.83-0.06 69.8- 68.7---
2024-06-23 03:45 am- 0.0-----29.83- 69.8- 68.7---
2024-06-23 03:30 am- 0.0-----29.83- 69.8- 68.7---
2024-06-23 03:15 am- 0.0-----29.83- 69.6- 68.5---
2024-06-23 03:00 am- 0.0-----29.85-0.06 69.8- 68.9---
2024-06-23 02:45 am- 0.0-----29.85- 69.6- 68.7---
2024-06-23 02:30 am- 0.0-----29.85- 69.6- 68.7---
2024-06-23 02:15 am- 0.0-----29.85- 69.8- 68.9---
2024-06-23 02:00 am- 0.0-----29.85-0.06 69.8- 68.9---
2024-06-23 01:45 am- 0.0-----29.88- 69.8- 68.7---
2024-06-23 01:30 am- 0.0-----29.88- 70.0- 68.9---
2024-06-23 01:15 am- 0.0-----29.88- 70.0- 68.9---
2024-06-23 01:00 am- 0.0-----29.88-0.03 70.2- 69.1---